This is the latest recevied weather packets stored in our database for station/object KF4WSW-13. If no packets are shown the sender has not sent any weather packets the latest 10 day(s).
| Time | Temp. | Humidity | Pressure | Rain* | Wind** | Luminosity | Snow |
|---|---|---|---|---|---|---|---|
| 1777751012 | 21.67° C | 96% | 1008.8 hPa | 1.78 mm | - | 56 W/m² | - |
| 1777750708 | 21.67° C | 96% | 1008.2 hPa | 0 mm | - | 53 W/m² | - |
| 1777750406 | 21.67° C | 96% | 1008.2 hPa | 0 mm | - | 47 W/m² | - |
| 1777750101 | 21.11° C | 96% | 1008.3 hPa | 0 mm | - | 48 W/m² | - |
| 1777749798 | 21.11° C | 96% | 1008.6 hPa | 1.27 mm | - | 44 W/m² | - |
| 1777749495 | 21.11° C | 96% | 1008.7 hPa | 1.27 mm | - | 54 W/m² | - |
| 1777749193 | 21.11° C | 95% | 1008.8 hPa | 3.05 mm | - | 63 W/m² | - |
| 1777748890 | 21.11° C | 95% | 1009.1 hPa | 10.67 mm | - | 30 W/m² | - |
| 1777748587 | 21.11° C | 95% | 1009 hPa | 10.67 mm | - | 15 W/m² | - |
| 1777748283 | 21.11° C | 95% | 1009.7 hPa | 10.16 mm | - | 11 W/m² | - |
| 1777747979 | 21.11° C | 94% | 1010 hPa | 21.59 mm | - | 10 W/m² | - |
| 1777747676 | 21.11° C | 94% | 1010.7 hPa | 28.7 mm | - | 9 W/m² | - |
| 1777747371 | 21.67° C | 93% | 1011 hPa | 22.86 mm | - | 9 W/m² | - |
| 1777747068 | 22.22° C | 91% | 1010.9 hPa | 8.89 mm | - | 6 W/m² | - |
| 1777746764 | 26.11° C | 92% | 1010.3 hPa | 0 mm | - | 6 W/m² | - |
| 1777746459 | 26.11° C | 92% | 1009.3 hPa | 0 mm | - | 24 W/m² | - |
| 1777746155 | 26.11° C | 91% | 1009.3 hPa | 1.78 mm | - | 35 W/m² | - |
| 1777745852 | 26.67° C | 90% | 1009.4 hPa | 1.78 mm | - | 43 W/m² | - |
| 1777745551 | 26.67° C | 89% | 1009.6 hPa | 0 mm | - | 37 W/m² | - |
| 1777745248 | 26.67° C | 88% | 1009.7 hPa | 0 mm | - | 28 W/m² | - |
| 1777744946 | 26.67° C | 88% | 1009.5 hPa | 0 mm | - | 40 W/m² | - |
| 1777744645 | 26.67° C | 88% | 1009.4 hPa | 0 mm | - | 47 W/m² | - |
| 1777744340 | 27.22° C | 87% | 1009.6 hPa | 0 mm | - | 68 W/m² | - |
| 1777744038 | 27.22° C | 86% | 1009.7 hPa | 0 mm | - | 82 W/m² | - |
| 1777743735 | 27.22° C | 86% | 1009.7 hPa | 0 mm | - | 124 W/m² | - |
* Rain latest hour (hover to see other rain measurements)
** Current wind speed in m/s (hover to see current wind gust speed)